Time,TemperatureF,DewpointF,PressureIn,WindDirection,WindDirectionDegrees,WindSpeedMPH,WindSpeedGustMPH,Humidity,HourlyPrecipIn,Conditions,Clouds,dailyrainin,SoftwareType,DateUTC
2013-02-28 00:00:00,46.1,40.6,29.64,NNW,333,0.0,0.0,81,0.00,,,0.02,Wunderground v.1.15,2013-02-28 05:00:00,
2013-02-28 00:03:00,46.1,41.5,29.65,NNW,333,0.0,0.0,84,0.00,,,0.02,Wunderground v.1.15,2013-02-28 05:03:00,
2013-02-28 00:07:00,46.1,41.8,29.65,NNW,333,0.0,0.0,85,0.00,,,0.02,Wunderground v.1.15,2013-02-28 05:07:00,
2013-02-28 00:13:00,45.9,41.6,29.64,NNW,333,0.0,0.0,85,0.00,,,0.02,Wunderground v.1.15,2013-02-28 05:13:00,
2013-02-28 00:18:00,45.8,41.9,29.64,NNW,333,0.0,0.0,86,0.00,,,0.00,Wunderground v.1.15,2013-02-28 05:18:00,
2013-02-28 00:24:00,45.6,41.7,29.64,NNW,333,0.0,0.0,86,0.00,,,0.00,Wunderground v.1.15,2013-02-28 05:24:00,
2013-02-28 00:29:00,45.4,41.8,29.64,NNW,333,0.0,0.0,87,0.00,,,0.00,Wunderground v.1.15,2013-02-28 05:29:00,
2013-02-28 00:35:00,45.2,41.6,29.64,NNW,333,0.0,0.0,87,0.00,,,0.00,Wunderground v.1.15,2013-02-28 05:35:00,
2013-02-28 00:40:00,45.1,41.5,29.64,NNW,333,0.0,0.0,87,0.00,,,0.00,Wunderground v.1.15,2013-02-28 05:40:00,
2013-02-28 00:45:00,45.0,41.4,29.64,NNW,333,0.0,1.0,87,0.00,,,0.00,Wunderground v.1.15,2013-02-28 05:45:00,
2013-02-28 00:51:00,44.9,41.3,29.64,NNW,333,1.0,2.0,87,0.00,,,0.00,Wunderground v.1.15,2013-02-28 05:51:00,
2013-02-28 00:57:00,44.7,41.4,29.64,NNW,333,2.0,2.0,88,0.00,,,0.00,Wunderground v.1.15,2013-02-28 05:57:00,
2013-02-28 01:02:00,44.5,41.5,29.64,NNW,333,1.0,2.0,89,0.00,,,0.00,Wunderground v.1.15,2013-02-28 06:02:00,
2013-02-28 01:07:00,44.3,41.3,29.64,NNW,333,0.0,4.0,89,0.00,,,0.00,Wunderground v.1.15,2013-02-28 06:07:00,
2013-02-28 01:13:00,44.1,41.4,29.64,NNW,333,0.0,3.0,90,0.00,,,0.00,Wunderground v.1.15,2013-02-28 06:13:00,
2013-02-28 01:19:00,44.0,41.3,29.64,NNW,333,0.0,3.0,90,0.00,,,0.00,Wunderground v.1.15,2013-02-28 06:19:00,
2013-02-28 01:25:00,43.8,40.8,29.64,NNW,333,2.0,4.0,89,0.00,,,0.00,Wunderground v.1.15,2013-02-28 06:25:00,
2013-02-28 01:30:00,43.9,40.9,29.64,NNW,333,2.0,2.0,89,0.00,,,0.00,Wunderground v.1.15,2013-02-28 06:30:00,
2013-02-28 01:35:00,43.9,40.6,29.64,NNW,327,5.0,5.0,88,0.00,,,0.00,Wunderground v.1.15,2013-02-28 06:35:00,
2013-02-28 01:40:00,44.0,40.7,29.64,NW,318,10.0,10.0,88,0.00,,,0.00,Wunderground v.1.15,2013-02-28 06:40:00,
2013-02-28 01:45:00,44.5,40.3,29.64,NW,313,4.0,10.0,85,0.00,,,0.00,Wunderground v.1.15,2013-02-28 06:45:00,
2013-02-28 01:50:00,44.9,40.7,29.64,NW,313,3.0,4.0,85,0.00,,,0.00,Wunderground v.1.15,2013-02-28 06:50:00,
2013-02-28 01:55:00,45.0,40.8,29.64,NW,313,1.0,4.0,85,0.00,,,0.00,Wunderground v.1.15,2013-02-28 06:55:00,
2013-02-28 02:01:00,45.0,40.8,29.64,NW,313,4.0,4.0,85,0.00,,,0.00,Wunderground v.1.15,2013-02-28 07:01:00,
2013-02-28 02:06:00,45.0,40.5,29.63,NW,313,0.0,4.0,84,0.00,,,0.00,Wunderground v.1.15,2013-02-28 07:06:00,
2013-02-28 02:11:00,45.0,41.1,29.63,NW,313,0.0,1.0,86,0.00,,,0.00,Wunderground v.1.15,2013-02-28 07:11:00,
2013-02-28 02:16:00,45.0,41.1,29.62,NW,313,0.0,1.0,86,0.00,,,0.00,Wunderground v.1.15,2013-02-28 07:16:00,
2013-02-28 02:21:00,45.0,41.1,29.62,NW,313,0.0,2.0,86,0.00,,,0.00,Wunderground v.1.15,2013-02-28 07:21:00,
2013-02-28 02:26:00,44.9,41.0,29.62,NW,313,0.0,2.0,86,0.00,,,0.00,Wunderground v.1.15,2013-02-28 07:26:00,
2013-02-28 02:31:00,44.9,40.7,29.62,NW,313,0.0,1.0,85,0.00,,,0.00,Wunderground v.1.15,2013-02-28 07:31:00,
2013-02-28 02:36:00,44.8,40.6,29.62,NW,313,0.0,1.0,85,0.00,,,0.00,Wunderground v.1.15,2013-02-28 07:36:00,
2013-02-28 02:41:00,44.8,40.6,29.62,NW,313,1.0,1.0,85,0.00,,,0.00,Wunderground v.1.15,2013-02-28 07:41:00,
2013-02-28 02:46:00,44.7,40.5,29.62,NW,313,1.0,2.0,85,0.00,,,0.00,Wunderground v.1.15,2013-02-28 07:46:00,
2013-02-28 02:51:00,44.7,40.5,29.62,NW,313,0.0,1.0,85,0.00,,,0.00,Wunderground v.1.15,2013-02-28 07:51:00,
2013-02-28 02:56:00,44.7,40.5,29.62,NW,313,0.0,1.0,85,0.00,,,0.00,Wunderground v.1.15,2013-02-28 07:56:00,
2013-02-28 03:01:00,44.7,40.5,29.62,NW,313,0.0,0.0,85,0.00,,,0.00,Wunderground v.1.15,2013-02-28 08:01:00,
2013-02-28 03:06:00,44.6,40.4,29.62,NW,313,0.0,0.0,85,0.00,,,0.00,Wunderground v.1.15,2013-02-28 08:06:00,
2013-02-28 03:11:00,44.6,40.4,29.62,NW,313,0.0,0.0,85,0.00,,,0.00,Wunderground v.1.15,2013-02-28 08:11:00,
2013-02-28 03:16:00,44.6,40.4,29.62,NW,313,1.0,3.0,85,0.00,,,0.00,Wunderground v.1.15,2013-02-28 08:16:00,
2013-02-28 03:21:00,44.5,40.6,29.62,NW,313,0.0,0.0,86,0.00,,,0.00,Wunderground v.1.15,2013-02-28 08:21:00,
2013-02-28 03:26:00,44.5,40.6,29.62,NW,313,0.0,0.0,86,0.00,,,0.00,Wunderground v.1.15,2013-02-28 08:26:00,
2013-02-28 03:31:00,44.4,40.5,29.61,NW,313,0.0,0.0,86,0.00,,,0.00,Wunderground v.1.15,2013-02-28 08:31:00,
2013-02-28 03:36:00,44.2,40.3,29.61,NW,313,2.0,2.0,86,0.00,,,0.00,Wunderground v.1.15,2013-02-28 08:36:00,
2013-02-28 03:41:00,44.2,40.3,29.61,NW,313,1.0,1.0,86,0.00,,,0.00,Wunderground v.1.15,2013-02-28 08:41:00,
2013-02-28 03:46:00,44.1,40.8,29.61,NW,313,1.0,1.0,88,0.00,,,0.00,Wunderground v.1.15,2013-02-28 08:46:00,
2013-02-28 03:51:00,44.0,40.7,29.61,NW,313,1.0,2.0,88,0.00,,,0.00,Wunderground v.1.15,2013-02-28 08:51:00,
2013-02-28 03:56:00,43.9,40.6,29.61,NW,313,1.0,2.0,88,0.00,,,0.00,Wunderground v.1.15,2013-02-28 08:56:00,
2013-02-28 04:01:00,43.9,40.9,29.61,NW,313,0.0,1.0,89,0.00,,,0.00,Wunderground v.1.15,2013-02-28 09:01:00,
2013-02-28 04:06:00,43.8,40.8,29.62,NW,313,0.0,1.0,89,0.00,,,0.00,Wunderground v.1.15,2013-02-28 09:06:00,
2013-02-28 04:11:00,43.8,40.5,29.62,NW,313,0.0,1.0,88,0.00,,,0.00,Wunderground v.1.15,2013-02-28 09:11:00,
2013-02-28 04:16:00,43.8,40.5,29.62,NW,313,4.0,4.0,88,0.00,,,0.00,Wunderground v.1.15,2013-02-28 09:16:00,
2013-02-28 04:21:00,43.9,40.9,29.62,NW,313,0.0,1.0,89,0.00,,,0.00,Wunderground v.1.15,2013-02-28 09:21:00,
2013-02-28 04:26:00,43.9,40.9,29.62,NW,313,2.0,2.0,89,0.00,,,0.00,Wunderground v.1.15,2013-02-28 09:26:00,
2013-02-28 04:31:00,43.9,40.9,29.62,NW,313,2.0,2.0,89,0.00,,,0.00,Wunderground v.1.15,2013-02-28 09:31:00,
2013-02-28 04:36:00,43.9,40.6,29.63,NW,316,4.0,9.0,88,0.00,,,0.00,Wunderground v.1.15,2013-02-28 09:36:00,
2013-02-28 04:41:00,44.2,40.6,29.63,NNW,329,6.0,6.0,87,0.00,,,0.00,Wunderground v.1.15,2013-02-28 09:41:00,
2013-02-28 04:46:00,44.3,40.7,29.63,NNW,329,2.0,6.0,87,0.00,,,0.00,Wunderground v.1.15,2013-02-28 09:46:00,
2013-02-28 04:51:00,44.3,40.7,29.64,NNW,329,0.0,2.0,87,0.00,,,0.00,Wunderground v.1.15,2013-02-28 09:51:00,
2013-02-28 04:56:00,44.3,40.7,29.64,NNW,329,0.0,2.0,87,0.00,,,0.00,Wunderground v.1.15,2013-02-28 09:56:00,
2013-02-28 05:01:00,44.3,40.7,29.63,NNW,329,1.0,3.0,87,0.00,,,0.00,Wunderground v.1.15,2013-02-28 10:01:00,
2013-02-28 05:06:00,44.2,40.9,29.64,NNW,329,0.0,3.0,88,0.00,,,0.00,Wunderground v.1.15,2013-02-28 10:06:00,
2013-02-28 05:11:00,44.0,40.7,29.64,NNW,329,1.0,3.0,88,0.00,,,0.00,Wunderground v.1.15,2013-02-28 10:11:00,
2013-02-28 05:16:00,43.9,40.6,29.64,NNW,329,0.0,3.0,88,0.00,,,0.00,Wunderground v.1.15,2013-02-28 10:16:00,
2013-02-28 05:21:00,43.6,40.6,29.64,NNW,329,4.0,10.0,89,0.00,,,0.01,Wunderground v.1.15,2013-02-28 10:21:00,
2013-02-28 05:26:00,43.5,40.5,29.65,NNW,333,4.0,10.0,89,0.00,,,0.01,Wunderground v.1.15,2013-02-28 10:26:00,
2013-02-28 05:31:00,43.3,40.3,29.65,NNW,333,0.0,5.0,89,0.00,,,0.01,Wunderground v.1.15,2013-02-28 10:31:00,
2013-02-28 05:36:00,43.2,40.2,29.65,NNW,333,9.0,9.0,89,0.00,,,0.01,Wunderground v.1.15,2013-02-28 10:36:00,
2013-02-28 05:41:00,43.0,40.3,29.65,NNW,341,5.0,9.0,90,0.00,,,0.01,Wunderground v.1.15,2013-02-28 10:41:00,
2013-02-28 05:46:00,42.9,40.2,29.65,NNW,342,3.0,9.0,90,0.00,,,0.01,Wunderground v.1.15,2013-02-28 10:46:00,
2013-02-28 05:51:00,42.9,40.5,29.65,NNW,341,3.0,5.0,91,0.00,,,0.01,Wunderground v.1.15,2013-02-28 10:51:00,
2013-02-28 05:56:00,42.8,40.4,29.65,NNW,342,0.0,5.0,91,0.00,,,0.01,Wunderground v.1.15,2013-02-28 10:56:00,
2013-02-28 06:01:00,42.7,40.5,29.65,NNW,342,0.0,2.0,92,0.00,,,0.01,Wunderground v.1.15,2013-02-28 11:01:00,
2013-02-28 06:06:00,42.6,40.4,29.65,NNW,336,5.0,7.0,92,0.00,,,0.02,Wunderground v.1.15,2013-02-28 11:06:00,
2013-02-28 06:11:00,42.4,40.5,29.66,NNW,331,14.0,14.0,93,0.00,,,0.02,Wunderground v.1.15,2013-02-28 11:11:00,
2013-02-28 06:16:00,42.0,39.8,29.66,NNW,331,12.0,15.0,92,0.05,,,0.03,Wunderground v.1.15,2013-02-28 11:16:00,
2013-02-28 06:21:00,41.8,39.6,29.66,NNW,340,10.0,12.0,92,0.05,,,0.03,Wunderground v.1.15,2013-02-28 11:21:00,
2013-02-28 06:26:00,41.6,39.4,29.66,NNW,333,4.0,14.0,92,0.05,,,0.04,Wunderground v.1.15,2013-02-28 11:26:00,
2013-02-28 06:31:00,41.5,39.3,29.66,NNW,334,3.0,13.0,92,0.05,,,0.04,Wunderground v.1.15,2013-02-28 11:31:00,
2013-02-28 06:36:00,41.4,39.3,29.66,NNW,334,10.0,16.0,92,0.05,,,0.04,Wunderground v.1.15,2013-02-28 11:36:00,
2013-02-28 06:41:00,41.3,39.2,29.66,NNW,333,8.0,11.0,92,0.06,,,0.05,Wunderground v.1.15,2013-02-28 11:41:00,
2013-02-28 06:46:00,41.3,39.2,29.66,NNW,336,5.0,11.0,92,0.06,,,0.05,Wunderground v.1.15,2013-02-28 11:46:00,
2013-02-28 06:51:00,41.3,39.4,29.66,NNW,342,5.0,7.0,93,0.06,,,0.06,Wunderground v.1.15,2013-02-28 11:51:00,
2013-02-28 06:56:00,41.2,39.3,29.66,NW,320,14.0,15.0,93,0.11,,,0.07,Wunderground v.1.15,2013-02-28 11:56:00,
2013-02-28 07:01:00,41.3,39.4,29.67,NW,315,17.0,19.0,93,0.11,,,0.08,Wunderground v.1.15,2013-02-28 12:01:00,
2013-02-28 07:06:00,41.2,39.3,29.66,NW,325,19.0,20.0,93,0.09,,,0.09,Wunderground v.1.15,2013-02-28 12:06:00,
2013-02-28 07:11:00,41.1,39.2,29.67,NW,321,21.0,23.0,93,0.09,,,0.09,Wunderground v.1.15,2013-02-28 12:11:00,
2013-02-28 07:16:00,40.9,38.8,29.67,NW,323,18.0,23.0,92,0.05,,,0.09,Wunderground v.1.15,2013-02-28 12:16:00,
2013-02-28 07:22:00,40.7,38.3,29.67,NW,321,17.0,20.0,91,0.04,,,0.10,Wunderground v.1.15,2013-02-28 12:22:00,
2013-02-28 07:27:00,40.6,38.2,29.67,NW,322,19.0,20.0,91,0.04,,,0.10,Wunderground v.1.15,2013-02-28 12:27:00,
2013-02-28 07:32:00,40.6,38.2,29.68,NNW,333,19.0,21.0,91,0.05,,,0.11,Wunderground v.1.15,2013-02-28 12:32:00,
2013-02-28 07:38:00,40.5,37.8,29.68,NW,318,16.0,21.0,90,0.05,,,0.11,Wunderground v.1.15,2013-02-28 12:38:00,
2013-02-28 07:43:00,40.5,37.8,29.68,NW,326,16.0,19.0,90,0.05,,,0.11,Wunderground v.1.15,2013-02-28 12:43:00,
2013-02-28 07:48:00,40.4,37.4,29.68,NNW,332,17.0,21.0,89,0.00,,,0.11,Wunderground v.1.15,2013-02-28 12:48:00,
2013-02-28 07:53:00,40.5,37.5,29.68,NW,320,14.0,16.0,89,0.00,,,0.11,Wunderground v.1.15,2013-02-28 12:53:00,
2013-02-28 07:58:00,40.5,37.8,29.68,NW,323,17.0,17.0,90,0.00,,,0.12,Wunderground v.1.15,2013-02-28 12:58:00,
2013-02-28 08:03:00,40.5,37.8,29.69,NNW,329,15.0,18.0,90,0.00,,,0.12,Wunderground v.1.15,2013-02-28 13:03:00,
2013-02-28 08:08:00,40.3,37.3,29.68,NNW,346,7.0,18.0,89,0.00,,,0.12,Wunderground v.1.15,2013-02-28 13:08:00,
2013-02-28 08:13:00,40.2,36.9,29.68,NNW,336,4.0,12.0,88,0.00,,,0.12,Wunderground v.1.15,2013-02-28 13:13:00,
2013-02-28 08:18:00,40.0,37.0,29.68,NNE,12,3.0,12.0,89,0.00,,,0.12,Wunderground v.1.15,2013-02-28 13:18:00,
2013-02-28 08:23:00,39.8,36.8,29.68,NE,40,2.0,6.0,89,0.00,,,0.12,Wunderground v.1.15,2013-02-28 13:23:00,
2013-02-28 08:28:00,39.7,37.0,29.68,NE,44,1.0,6.0,90,0.00,,,0.12,Wunderground v.1.15,2013-02-28 13:28:00,
2013-02-28 08:33:00,39.7,37.0,29.67,NE,44,4.0,4.0,90,0.00,,,0.12,Wunderground v.1.15,2013-02-28 13:33:00,
2013-02-28 08:38:00,39.6,37.2,29.67,NE,44,3.0,4.0,91,0.00,,,0.12,Wunderground v.1.15,2013-02-28 13:38:00,
2013-02-28 08:43:00,39.6,36.9,29.67,NE,44,0.0,3.0,90,0.00,,,0.12,Wunderground v.1.15,2013-02-28 13:43:00,
2013-02-28 08:48:00,39.7,37.3,29.67,NE,41,0.0,5.0,91,0.00,,,0.12,Wunderground v.1.15,2013-02-28 13:48:00,
2013-02-28 08:53:00,39.7,37.0,29.67,NE,42,1.0,4.0,90,0.00,,,0.12,Wunderground v.1.15,2013-02-28 13:53:00,
2013-02-28 08:58:00,39.8,37.1,29.67,NE,42,0.0,4.0,90,0.00,,,0.12,Wunderground v.1.15,2013-02-28 13:58:00,
2013-02-28 09:03:00,40.0,37.3,29.67,NE,42,0.0,1.0,90,0.00,,,0.12,Wunderground v.1.15,2013-02-28 14:03:00,
2013-02-28 09:08:00,40.2,37.8,29.67,NE,41,0.0,2.0,91,0.00,,,0.12,Wunderground v.1.15,2013-02-28 14:08:00,
2013-02-28 09:13:00,40.3,37.9,29.67,NE,42,0.0,2.0,91,0.00,,,0.12,Wunderground v.1.15,2013-02-28 14:13:00,
2013-02-28 09:18:00,40.4,38.0,29.67,NE,42,0.0,2.0,91,0.00,,,0.12,Wunderground v.1.15,2013-02-28 14:18:00,
2013-02-28 09:23:00,40.6,38.2,29.67,NE,41,0.0,3.0,91,0.00,,,0.12,Wunderground v.1.15,2013-02-28 14:23:00,
2013-02-28 09:28:00,40.7,38.0,29.67,NE,41,0.0,3.0,90,0.00,,,0.12,Wunderground v.1.15,2013-02-28 14:28:00,
2013-02-28 09:33:00,40.9,38.2,29.67,NE,42,0.0,1.0,90,0.00,,,0.12,Wunderground v.1.15,2013-02-28 14:33:00,
2013-02-28 09:38:00,41.1,38.4,29.67,NE,42,0.0,1.0,90,0.00,,,0.12,Wunderground v.1.15,2013-02-28 14:38:00,
2013-02-28 09:43:00,41.1,38.1,29.67,NE,42,0.0,0.0,89,0.00,,,0.12,Wunderground v.1.15,2013-02-28 14:43:00,
2013-02-28 09:48:00,41.2,37.9,29.67,NE,41,2.0,2.0,88,0.00,,,0.12,Wunderground v.1.15,2013-02-28 14:48:00,
2013-02-28 09:53:00,41.3,37.4,29.67,NE,41,1.0,2.0,86,0.00,,,0.12,Wunderground v.1.15,2013-02-28 14:53:00,
2013-02-28 09:58:00,41.4,37.2,29.67,NE,42,1.0,2.0,85,0.00,,,0.12,Wunderground v.1.15,2013-02-28 14:58:00,
2013-02-28 10:03:00,41.6,37.1,29.67,NE,42,1.0,2.0,84,0.00,,,0.12,Wunderground v.1.15,2013-02-28 15:03:00,
2013-02-28 10:09:00,41.8,37.9,29.67,NE,41,1.0,2.0,86,0.00,,,0.12,Wunderground v.1.15,2013-02-28 15:09:00,
2013-02-28 10:14:00,41.9,37.7,29.66,NE,42,0.0,2.0,85,0.00,,,0.12,Wunderground v.1.15,2013-02-28 15:14:00,
2013-02-28 10:18:00,42.1,37.9,29.66,NE,42,1.0,2.0,85,0.00,,,0.12,Wunderground v.1.15,2013-02-28 15:18:00,
2013-02-28 10:23:00,42.2,37.7,29.66,NE,42,2.0,2.0,84,0.00,,,0.12,Wunderground v.1.15,2013-02-28 15:23:00,
2013-02-28 10:29:00,42.4,37.9,29.66,NE,42,3.0,3.0,84,0.00,,,0.12,Wunderground v.1.15,2013-02-28 15:29:00,
2013-02-28 10:34:00,42.6,38.1,29.66,NE,42,2.0,3.0,84,0.00,,,0.12,Wunderground v.1.15,2013-02-28 15:34:00,
2013-02-28 10:39:00,43.0,39.1,29.66,NE,41,2.0,3.0,86,0.00,,,0.12,Wunderground v.1.15,2013-02-28 15:39:00,
2013-02-28 10:44:00,43.2,39.0,29.66,NE,41,1.0,4.0,85,0.00,,,0.12,Wunderground v.1.15,2013-02-28 15:44:00,
2013-02-28 10:49:00,43.6,39.7,29.66,NE,42,2.0,4.0,86,0.00,,,0.12,Wunderground v.1.15,2013-02-28 15:49:00,
2013-02-28 10:54:00,44.1,40.5,29.66,NE,42,3.0,4.0,87,0.00,,,0.12,Wunderground v.1.15,2013-02-28 15:54:00,
2013-02-28 10:59:00,44.2,40.3,29.66,NE,41,1.0,4.0,86,0.00,,,0.12,Wunderground v.1.15,2013-02-28 15:59:00,
2013-02-28 11:04:00,44.3,40.1,29.65,NE,41,2.0,3.0,85,0.00,,,0.12,Wunderground v.1.15,2013-02-28 16:04:00,
2013-02-28 11:09:00,44.1,39.6,29.66,NE,42,3.0,4.0,84,0.00,,,0.12,Wunderground v.1.15,2013-02-28 16:09:00,
2013-02-28 11:14:00,44.1,39.0,29.66,NE,42,2.0,3.0,82,0.00,,,0.12,Wunderground v.1.15,2013-02-28 16:14:00,
2013-02-28 11:19:00,44.3,39.2,29.65,NE,42,3.0,4.0,82,0.00,,,0.12,Wunderground v.1.15,2013-02-28 16:19:00,
2013-02-28 11:24:00,44.6,39.8,29.65,South,190,6.0,7.0,83,0.00,,,0.12,Wunderground v.1.15,2013-02-28 16:24:00,
2013-02-28 11:29:00,44.4,39.9,29.65,SSW,192,7.0,7.0,84,0.00,,,0.12,Wunderground v.1.15,2013-02-28 16:29:00,
2013-02-28 11:34:00,44.1,39.6,29.65,SSW,196,5.0,9.0,84,0.00,,,0.12,Wunderground v.1.15,2013-02-28 16:34:00,
2013-02-28 11:39:00,43.7,39.2,29.65,South,188,4.0,9.0,84,0.00,,,0.12,Wunderground v.1.15,2013-02-28 16:39:00,
2013-02-28 11:44:00,43.6,39.1,29.65,South,191,6.0,7.0,84,0.00,,,0.12,Wunderground v.1.15,2013-02-28 16:44:00,
2013-02-28 11:49:00,43.6,38.8,29.65,SSW,195,5.0,8.0,83,0.00,,,0.12,Wunderground v.1.15,2013-02-28 16:49:00,
2013-02-28 11:54:00,43.6,39.1,29.65,SSW,192,7.0,9.0,84,0.00,,,0.12,Wunderground v.1.15,2013-02-28 16:54:00,
2013-02-28 11:59:00,43.5,39.0,29.65,South,191,6.0,9.0,84,0.00,,,0.12,Wunderground v.1.15,2013-02-28 16:59:00,
2013-02-28 12:04:00,43.8,39.3,29.65,South,191,6.0,7.0,84,0.00,,,0.12,Wunderground v.1.15,2013-02-28 17:04:00,
2013-02-28 12:09:00,43.6,38.8,29.65,South,191,6.0,7.0,83,0.00,,,0.12,Wunderground v.1.15,2013-02-28 17:09:00,
2013-02-28 12:14:00,43.5,38.7,29.64,South,191,4.0,7.0,83,0.00,,,0.12,Wunderground v.1.15,2013-02-28 17:14:00,
2013-02-28 12:19:00,43.8,39.0,29.64,South,191,4.0,7.0,83,0.00,,,0.12,Wunderground v.1.15,2013-02-28 17:19:00,
2013-02-28 12:24:00,44.0,38.5,29.64,South,191,4.0,5.0,81,0.00,,,0.12,Wunderground v.1.15,2013-02-28 17:24:00,
2013-02-28 12:29:00,44.1,38.6,29.64,South,191,6.0,6.0,81,0.00,,,0.12,Wunderground v.1.15,2013-02-28 17:29:00,
2013-02-28 12:35:00,44.2,38.7,29.64,SSW,192,6.0,7.0,81,0.00,,,0.12,Wunderground v.1.15,2013-02-28 17:35:00,
2013-02-28 12:40:00,44.5,39.3,29.63,SSW,196,7.0,7.0,82,0.00,,,0.12,Wunderground v.1.15,2013-02-28 17:40:00,
2013-02-28 12:45:00,44.6,39.8,29.63,SSW,196,4.0,8.0,83,0.00,,,0.12,Wunderground v.1.15,2013-02-28 17:45:00,
2013-02-28 12:50:00,44.7,40.2,29.63,SSW,196,5.0,6.0,84,0.00,,,0.12,Wunderground v.1.15,2013-02-28 17:50:00,
2013-02-28 12:55:00,44.7,39.9,29.63,SSW,197,7.0,7.0,83,0.00,,,0.12,Wunderground v.1.15,2013-02-28 17:55:00,
2013-02-28 13:00:00,44.4,39.9,29.62,SSW,196,6.0,6.0,84,0.00,,,0.12,Wunderground v.1.15,2013-02-28 18:00:00,
2013-02-28 13:05:00,44.2,39.7,29.62,SSW,196,6.0,8.0,84,0.00,,,0.12,Wunderground v.1.15,2013-02-28 18:05:00,
2013-02-28 13:10:00,44.0,39.5,29.62,SSW,198,7.0,7.0,84,0.00,,,0.12,Wunderground v.1.15,2013-02-28 18:10:00,
2013-02-28 13:15:00,43.8,39.6,29.62,SSW,198,9.0,10.0,85,0.00,,,0.12,Wunderground v.1.15,2013-02-28 18:15:00,
2013-02-28 13:20:00,43.5,39.6,29.62,SSW,198,6.0,8.0,86,0.00,,,0.12,Wunderground v.1.15,2013-02-28 18:20:00,
2013-02-28 13:25:00,43.3,39.4,29.61,SSW,200,7.0,10.0,86,0.00,,,0.12,Wunderground v.1.15,2013-02-28 18:25:00,
2013-02-28 13:30:00,43.2,39.3,29.62,SSW,201,8.0,10.0,86,0.00,,,0.12,Wunderground v.1.15,2013-02-28 18:30:00,
2013-02-28 13:35:00,43.0,39.4,29.61,SSW,200,6.0,10.0,87,0.00,,,0.12,Wunderground v.1.15,2013-02-28 18:35:00,
2013-02-28 13:40:00,42.8,39.5,29.61,SSW,194,8.0,10.0,88,0.00,,,0.12,Wunderground v.1.15,2013-02-28 18:40:00,
2013-02-28 13:45:00,42.8,39.5,29.61,SSW,196,5.0,10.0,88,0.00,,,0.12,Wunderground v.1.15,2013-02-28 18:45:00,
2013-02-28 13:50:00,42.7,39.4,29.61,SSW,202,5.0,7.0,88,0.00,,,0.12,Wunderground v.1.15,2013-02-28 18:50:00,
2013-02-28 13:55:00,42.6,39.3,29.61,SSW,202,5.0,7.0,88,0.00,,,0.12,Wunderground v.1.15,2013-02-28 18:55:00,
2013-02-28 14:00:00,42.7,39.4,29.61,SSW,202,5.0,5.0,88,0.00,,,0.12,Wunderground v.1.15,2013-02-28 19:00:00,
2013-02-28 14:05:00,42.6,38.7,29.61,SSW,202,2.0,6.0,86,0.00,,,0.12,Wunderground v.1.15,2013-02-28 19:05:00,
2013-02-28 14:10:00,42.7,38.8,29.61,SSW,202,2.0,3.0,86,0.00,,,0.12,Wunderground v.1.15,2013-02-28 19:10:00,
2013-02-28 14:16:00,42.7,38.2,29.61,SSW,202,3.0,6.0,84,0.00,,,0.12,Wunderground v.1.15,2013-02-28 19:16:00,
2013-02-28 14:21:00,42.8,37.4,29.61,SSW,202,1.0,3.0,81,0.00,,,0.12,Wunderground v.1.15,2013-02-28 19:21:00,
2013-02-28 14:26:00,43.0,37.3,29.61,SSW,202,2.0,5.0,80,0.00,,,0.12,Wunderground v.1.15,2013-02-28 19:26:00,
2013-02-28 14:31:00,43.2,37.1,29.62,SW,225,3.0,3.0,79,0.00,,,0.12,Wunderground v.1.15,2013-02-28 19:31:00,
2013-02-28 14:36:00,43.5,37.7,29.61,NW,315,10.0,11.0,80,0.00,,,0.12,Wunderground v.1.15,2013-02-28 19:36:00,
2013-02-28 14:41:00,43.8,37.7,29.62,NW,318,10.0,12.0,79,0.00,,,0.12,Wunderground v.1.15,2013-02-28 19:41:00,
2013-02-28 14:46:00,44.0,37.6,29.61,NW,317,10.0,13.0,78,0.00,,,0.12,Wunderground v.1.15,2013-02-28 19:46:00,
2013-02-28 14:51:00,44.2,38.1,29.61,NW,312,11.0,11.0,79,0.00,,,0.12,Wunderground v.1.15,2013-02-28 19:51:00,
2013-02-28 14:57:00,44.1,38.0,29.62,NW,311,12.0,13.0,79,0.00,,,0.12,Wunderground v.1.15,2013-02-28 19:57:00,
2013-02-28 15:01:00,44.2,38.1,29.62,NW,310,11.0,12.0,79,0.00,,,0.12,Wunderground v.1.15,2013-02-28 20:01:00,
2013-02-28 15:07:00,44.1,38.0,29.62,NW,310,10.0,13.0,79,0.00,,,0.12,Wunderground v.1.15,2013-02-28 20:07:00,
2013-02-28 15:12:00,44.1,37.7,29.62,NW,309,14.0,15.0,78,0.00,,,0.12,Wunderground v.1.15,2013-02-28 20:12:00,
2013-02-28 15:17:00,44.2,37.4,29.62,NW,323,17.0,20.0,77,0.00,,,0.12,Wunderground v.1.15,2013-02-28 20:17:00,
2013-02-28 15:22:00,44.3,37.9,29.62,NW,323,17.0,17.0,78,0.00,,,0.12,Wunderground v.1.15,2013-02-28 20:22:00,
2013-02-28 15:27:00,44.2,37.8,29.63,NW,315,14.0,18.0,78,0.00,,,0.12,Wunderground v.1.15,2013-02-28 20:27:00,
2013-02-28 15:32:00,44.0,38.2,29.63,WNW,299,20.0,20.0,80,0.00,,,0.12,Wunderground v.1.15,2013-02-28 20:32:00,
2013-02-28 15:37:00,43.8,37.7,29.63,NW,304,16.0,20.0,79,0.00,,,0.12,Wunderground v.1.15,2013-02-28 20:37:00,
2013-02-28 15:42:00,43.8,38.3,29.63,WNW,296,11.0,15.0,81,0.00,,,0.12,Wunderground v.1.15,2013-02-28 20:42:00,
2013-02-28 15:48:00,43.6,37.8,29.63,NW,310,17.0,18.0,80,0.00,,,0.12,Wunderground v.1.15,2013-02-28 20:48:00,
2013-02-28 15:53:00,43.7,37.9,29.63,WNW,295,18.0,19.0,80,0.00,,,0.12,Wunderground v.1.15,2013-02-28 20:53:00,
2013-02-28 15:58:00,43.6,38.2,29.63,WNW,302,14.0,19.0,81,0.00,,,0.12,Wunderground v.1.15,2013-02-28 20:58:00,
2013-02-28 16:03:00,43.4,38.3,29.63,WNW,295,13.0,15.0,82,0.00,,,0.12,Wunderground v.1.15,2013-02-28 21:03:00,
2013-02-28 16:08:00,43.3,38.5,29.63,WNW,298,10.0,15.0,83,0.00,,,0.12,Wunderground v.1.15,2013-02-28 21:08:00,
2013-02-28 16:13:00,43.3,38.5,29.63,WNW,288,10.0,13.0,83,0.00,,,0.12,Wunderground v.1.15,2013-02-28 21:13:00,
2013-02-28 16:19:00,43.3,38.5,29.63,WNW,284,9.0,13.0,83,0.00,,,0.12,Wunderground v.1.15,2013-02-28 21:19:00,
2013-02-28 16:24:00,43.3,37.9,29.63,WNW,295,10.0,15.0,81,0.00,,,0.12,Wunderground v.1.15,2013-02-28 21:24:00,
2013-02-28 16:29:00,43.4,38.0,29.63,WNW,297,10.0,15.0,81,0.00,,,0.12,Wunderground v.1.15,2013-02-28 21:29:00,
2013-02-28 16:34:00,43.5,38.4,29.63,NW,304,11.0,13.0,82,0.00,,,0.12,Wunderground v.1.15,2013-02-28 21:34:00,
2013-02-28 16:39:00,43.6,37.5,29.63,NW,306,17.0,18.0,79,0.00,,,0.12,Wunderground v.1.15,2013-02-28 21:39:00,
2013-02-28 16:44:00,43.7,37.0,29.63,NW,306,12.0,18.0,77,0.00,,,0.12,Wunderground v.1.15,2013-02-28 21:44:00,
2013-02-28 16:49:00,43.9,36.8,29.63,NW,306,12.0,19.0,76,0.00,,,0.12,Wunderground v.1.15,2013-02-28 21:49:00,
2013-02-28 16:54:00,44.0,37.3,29.63,NW,306,12.0,15.0,77,0.00,,,0.12,Wunderground v.1.15,2013-02-28 21:54:00,
2013-02-28 16:59:00,43.9,37.2,29.63,NW,310,12.0,15.0,77,0.00,,,0.12,Wunderground v.1.15,2013-02-28 21:59:00,
2013-02-28 17:04:00,43.8,37.4,29.63,WNW,303,12.0,15.0,78,0.00,,,0.12,Wunderground v.1.15,2013-02-28 22:04:00,
2013-02-28 17:09:00,43.8,37.4,29.63,WNW,300,13.0,15.0,78,0.00,,,0.12,Wunderground v.1.15,2013-02-28 22:09:00,
2013-02-28 17:14:00,43.8,37.1,29.63,WNW,296,15.0,19.0,77,0.00,,,0.12,Wunderground v.1.15,2013-02-28 22:14:00,
2013-02-28 17:19:00,43.9,37.2,29.64,NW,306,15.0,19.0,77,0.00,,,0.12,Wunderground v.1.15,2013-02-28 22:19:00,
2013-02-28 17:24:00,44.0,37.3,29.64,NW,305,12.0,17.0,77,0.00,,,0.12,Wunderground v.1.15,2013-02-28 22:24:00,
2013-02-28 17:29:00,43.9,37.5,29.64,NW,304,13.0,17.0,78,0.00,,,0.12,Wunderground v.1.15,2013-02-28 22:29:00,
2013-02-28 17:34:00,43.9,37.5,29.64,WNW,300,12.0,15.0,78,0.00,,,0.12,Wunderground v.1.15,2013-02-28 22:34:00,
2013-02-28 17:39:00,43.8,37.4,29.64,WNW,301,11.0,15.0,78,0.00,,,0.12,Wunderground v.1.15,2013-02-28 22:39:00,
2013-02-28 17:44:00,43.8,37.7,29.65,WNW,302,11.0,14.0,79,0.00,,,0.12,Wunderground v.1.15,2013-02-28 22:44:00,
2013-02-28 17:49:00,43.7,37.6,29.64,WNW,302,10.0,14.0,79,0.00,,,0.12,Wunderground v.1.15,2013-02-28 22:49:00,
2013-02-28 17:54:00,43.6,37.5,29.65,WNW,302,9.0,14.0,79,0.00,,,0.12,Wunderground v.1.15,2013-02-28 22:54:00,
2013-02-28 17:59:00,43.6,37.8,29.65,NW,306,10.0,14.0,80,0.00,,,0.12,Wunderground v.1.15,2013-02-28 22:59:00,
2013-02-28 18:04:00,43.5,38.1,29.65,NW,311,11.0,13.0,81,0.00,,,0.12,Wunderground v.1.15,2013-02-28 23:04:00,
2013-02-28 18:09:00,43.4,37.6,29.66,NW,304,11.0,13.0,80,0.00,,,0.12,Wunderground v.1.15,2013-02-28 23:09:00,
2013-02-28 18:14:00,43.5,37.7,29.66,WNW,303,10.0,12.0,80,0.00,,,0.12,Wunderground v.1.15,2013-02-28 23:14:00,
2013-02-28 18:19:00,43.5,38.1,29.66,NW,306,9.0,12.0,81,0.00,,,0.12,Wunderground v.1.15,2013-02-28 23:19:00,
2013-02-28 18:24:00,43.4,38.0,29.66,NW,306,10.0,11.0,81,0.00,,,0.12,Wunderground v.1.15,2013-02-28 23:24:00,
2013-02-28 18:29:00,43.4,38.0,29.66,NW,304,10.0,11.0,81,0.00,,,0.12,Wunderground v.1.15,2013-02-28 23:29:00,
2013-02-28 18:34:00,43.3,38.2,29.66,NW,308,8.0,10.0,82,0.00,,,0.12,Wunderground v.1.15,2013-02-28 23:34:00,
2013-02-28 18:39:00,43.2,38.4,29.67,NW,310,7.0,10.0,83,0.00,,,0.12,Wunderground v.1.15,2013-02-28 23:39:00,
2013-02-28 18:44:00,43.2,38.7,29.67,WNW,302,8.0,9.0,84,0.00,,,0.12,Wunderground v.1.15,2013-02-28 23:44:00,
2013-02-28 18:49:00,43.0,38.2,29.67,WNW,299,9.0,11.0,83,0.00,,,0.12,Wunderground v.1.15,2013-02-28 23:49:00,
2013-02-28 18:54:00,43.1,38.3,29.67,WNW,298,9.0,11.0,83,0.00,,,0.12,Wunderground v.1.15,2013-02-28 23:54:00,
2013-02-28 18:59:00,43.1,38.0,29.67,WNW,303,10.0,13.0,82,0.00,,,0.12,Wunderground v.1.15,2013-02-28 23:59:00,
2013-02-28 19:04:00,43.3,37.9,29.68,WNW,300,11.0,14.0,81,0.00,,,0.12,Wunderground v.1.15,2013-03-01 00:04:00,
2013-02-28 19:09:00,43.3,37.9,29.68,NW,306,11.0,14.0,81,0.00,,,0.12,Wunderground v.1.15,2013-03-01 00:09:00,
2013-02-28 19:14:00,43.4,38.0,29.68,NW,307,10.0,12.0,81,0.00,,,0.12,Wunderground v.1.15,2013-03-01 00:14:00,
2013-02-28 19:19:00,43.4,38.3,29.68,WNW,302,7.0,12.0,82,0.00,,,0.12,Wunderground v.1.15,2013-03-01 00:19:00,
2013-02-28 19:24:00,43.3,38.2,29.68,NW,304,10.0,12.0,82,0.00,,,0.12,Wunderground v.1.15,2013-03-01 00:24:00,
2013-02-28 19:29:00,43.3,38.5,29.69,NW,309,9.0,12.0,83,0.00,,,0.12,Wunderground v.1.15,2013-03-01 00:29:00,
2013-02-28 19:35:00,43.1,38.3,29.69,NW,309,10.0,11.0,83,0.00,,,0.12,Wunderground v.1.15,2013-03-01 00:35:00,
2013-02-28 19:40:00,43.2,38.4,29.69,NW,310,9.0,10.0,83,0.00,,,0.12,Wunderground v.1.15,2013-03-01 00:40:00,
2013-02-28 19:45:00,43.1,38.3,29.69,NW,318,11.0,12.0,83,0.00,,,0.12,Wunderground v.1.15,2013-03-01 00:45:00,
2013-02-28 19:50:00,43.2,37.8,29.69,NW,313,13.0,13.0,81,0.00,,,0.12,Wunderground v.1.15,2013-03-01 00:50:00,
2013-02-28 19:55:00,43.3,38.2,29.70,NW,313,13.0,16.0,82,0.00,,,0.12,Wunderground v.1.15,2013-03-01 00:55:00,
2013-02-28 20:00:00,43.3,37.5,29.70,NNW,327,15.0,15.0,80,0.00,,,0.12,Wunderground v.1.15,2013-03-01 01:00:00,
2013-02-28 20:05:00,43.4,37.6,29.70,NW,317,15.0,17.0,80,0.00,,,0.12,Wunderground v.1.15,2013-03-01 01:05:00,
2013-02-28 20:10:00,43.3,37.5,29.70,NW,310,15.0,15.0,80,0.00,,,0.12,Wunderground v.1.15,2013-03-01 01:10:00,
2013-02-28 20:15:00,43.2,37.8,29.70,NW,314,12.0,16.0,81,0.00,,,0.12,Wunderground v.1.15,2013-03-01 01:15:00,
2013-02-28 20:20:00,43.2,37.4,29.70,NW,317,15.0,15.0,80,0.00,,,0.12,Wunderground v.1.15,2013-03-01 01:20:00,
2013-02-28 20:25:00,43.2,37.4,29.70,NW,306,11.0,15.0,80,0.00,,,0.12,Wunderground v.1.15,2013-03-01 01:25:00,
2013-02-28 20:30:00,43.2,37.8,29.70,NW,312,10.0,13.0,81,0.00,,,0.12,Wunderground v.1.15,2013-03-01 01:30:00,
2013-02-28 20:35:00,43.0,37.6,29.71,NW,313,12.0,14.0,81,0.00,,,0.12,Wunderground v.1.15,2013-03-01 01:35:00,
2013-02-28 20:40:00,43.1,37.3,29.71,NW,308,12.0,13.0,80,0.00,,,0.12,Wunderground v.1.15,2013-03-01 01:40:00,
2013-02-28 20:45:00,43.1,37.3,29.71,NW,311,13.0,15.0,80,0.00,,,0.12,Wunderground v.1.15,2013-03-01 01:45:00,
2013-02-28 20:50:00,43.0,37.6,29.71,NW,304,11.0,12.0,81,0.00,,,0.12,Wunderground v.1.15,2013-03-01 01:50:00,
2013-02-28 20:55:00,42.9,37.5,29.71,NW,310,13.0,13.0,81,0.00,,,0.12,Wunderground v.1.15,2013-03-01 01:55:00,
2013-02-28 21:00:00,42.9,36.8,29.71,NW,309,11.0,13.0,79,0.00,,,0.12,Wunderground v.1.15,2013-03-01 02:00:00,
2013-02-28 21:05:00,43.0,37.6,29.71,NW,310,12.0,13.0,81,0.00,,,0.12,Wunderground v.1.15,2013-03-01 02:05:00,
2013-02-28 21:10:00,42.9,37.5,29.71,NW,305,11.0,11.0,81,0.00,,,0.12,Wunderground v.1.15,2013-03-01 02:10:00,
2013-02-28 21:15:00,42.8,37.1,29.71,WNW,299,12.0,16.0,80,0.00,,,0.12,Wunderground v.1.15,2013-03-01 02:15:00,
2013-02-28 21:20:00,42.9,36.8,29.71,NW,305,15.0,16.0,79,0.00,,,0.12,Wunderground v.1.15,2013-03-01 02:20:00,
2013-02-28 21:25:00,43.0,36.6,29.71,NW,307,14.0,18.0,78,0.00,,,0.12,Wunderground v.1.15,2013-03-01 02:25:00,
2013-02-28 21:30:00,43.1,36.4,29.71,NW,304,15.0,15.0,77,0.00,,,0.12,Wunderground v.1.15,2013-03-01 02:30:00,
2013-02-28 21:35:00,43.1,36.7,29.71,NW,309,14.0,16.0,78,0.00,,,0.12,Wunderground v.1.15,2013-03-01 02:35:00,
2013-02-28 21:40:00,43.1,37.0,29.71,NW,309,13.0,14.0,79,0.00,,,0.12,Wunderground v.1.15,2013-03-01 02:40:00,
2013-02-28 21:45:00,43.1,37.3,29.71,NW,311,12.0,14.0,80,0.00,,,0.12,Wunderground v.1.15,2013-03-01 02:45:00,
2013-02-28 21:50:00,42.9,37.5,29.70,NW,310,12.0,13.0,81,0.00,,,0.12,Wunderground v.1.15,2013-03-01 02:50:00,
2013-02-28 21:55:00,42.8,37.4,29.71,NW,311,10.0,13.0,81,0.00,,,0.12,Wunderground v.1.15,2013-03-01 02:55:00,
2013-02-28 22:00:00,42.7,37.6,29.71,NW,309,14.0,14.0,82,0.00,,,0.12,Wunderground v.1.15,2013-03-01 03:00:00,
2013-02-28 22:05:00,42.7,37.6,29.70,NW,304,14.0,16.0,82,0.00,,,0.12,Wunderground v.1.15,2013-03-01 03:05:00,
2013-02-28 22:10:00,42.6,37.2,29.70,NW,311,13.0,15.0,81,0.00,,,0.12,Wunderground v.1.15,2013-03-01 03:10:00,
2013-02-28 22:15:00,42.6,37.2,29.70,NW,309,13.0,17.0,81,0.00,,,0.12,Wunderground v.1.15,2013-03-01 03:15:00,
2013-02-28 22:20:00,42.7,37.0,29.69,NW,309,11.0,13.0,80,0.00,,,0.12,Wunderground v.1.15,2013-03-01 03:20:00,
2013-02-28 22:25:00,42.8,37.4,29.69,NW,305,12.0,14.0,81,0.00,,,0.12,Wunderground v.1.15,2013-03-01 03:25:00,
2013-02-28 22:30:00,42.7,37.6,29.69,NW,306,10.0,12.0,82,0.00,,,0.12,Wunderground v.1.15,2013-03-01 03:30:00,
2013-02-28 22:35:00,42.7,37.9,29.69,NW,308,12.0,12.0,83,0.00,,,0.12,Wunderground v.1.15,2013-03-01 03:35:00,
2013-02-28 22:40:00,42.5,37.7,29.69,NW,306,14.0,14.0,83,0.00,,,0.12,Wunderground v.1.15,2013-03-01 03:40:00,
2013-02-28 22:45:00,42.5,37.1,29.69,WNW,303,12.0,15.0,81,0.00,,,0.12,Wunderground v.1.15,2013-03-01 03:45:00,
2013-02-28 22:50:00,42.5,37.1,29.69,WNW,302,12.0,13.0,81,0.00,,,0.12,Wunderground v.1.15,2013-03-01 03:50:00,
2013-02-28 22:56:00,42.6,37.5,29.69,WNW,302,12.0,14.0,82,0.00,,,0.12,Wunderground v.1.15,2013-03-01 03:56:00,
2013-02-28 23:01:00,42.5,37.1,29.69,NW,304,11.0,15.0,81,0.00,,,0.12,Wunderground v.1.15,2013-03-01 04:01:00,
2013-02-28 23:06:00,42.6,37.2,29.69,WNW,296,14.0,17.0,81,0.00,,,0.12,Wunderground v.1.15,2013-03-01 04:06:00,
2013-02-28 23:11:00,42.7,37.0,29.69,WNW,302,12.0,15.0,80,0.00,,,0.12,Wunderground v.1.15,2013-03-01 04:11:00,
2013-02-28 23:16:00,42.7,37.3,29.69,NW,306,14.0,16.0,81,0.00,,,0.12,Wunderground v.1.15,2013-03-01 04:16:00,
2013-02-28 23:22:00,42.7,37.0,29.69,NW,305,13.0,16.0,80,0.00,,,0.12,Wunderground v.1.15,2013-03-01 04:22:00,
2013-02-28 23:27:00,42.7,37.3,29.69,NW,310,12.0,17.0,81,0.00,,,0.12,Wunderground v.1.15,2013-03-01 04:27:00,
2013-02-28 23:32:00,42.7,37.3,29.69,NW,309,15.0,18.0,81,0.00,,,0.12,Wunderground v.1.15,2013-03-01 04:32:00,
2013-02-28 23:37:00,42.7,37.3,29.69,NW,310,16.0,20.0,81,0.00,,,0.12,Wunderground v.1.15,2013-03-01 04:37:00,
2013-02-28 23:42:00,42.7,37.0,29.69,NW,305,17.0,20.0,80,0.00,,,0.12,Wunderground v.1.15,2013-03-01 04:42:00,
2013-02-28 23:48:00,42.8,37.4,29.69,NW,304,14.0,20.0,81,0.00,,,0.12,Wunderground v.1.15,2013-03-01 04:48:00,
2013-02-28 23:53:00,42.7,37.6,29.69,NW,305,14.0,17.0,82,0.00,,,0.12,Wunderground v.1.15,2013-03-01 04:53:00,
2013-02-28 23:58:00,42.7,37.3,29.69,WNW,299,13.0,18.0,81,0.00,,,0.12,Wunderground v.1.15,2013-03-01 04:58:00,